DW5499 Weather Reports


Display with metric or nautical units.
time (UTC)temp
F
wind
direction
speed
MPH
gust
MPH
rain 1hr
in
rain 24hr
in
rain mn
in
humidity
%
barometer
mb
20260505021532 75 170 0.0 0.0 0.00 0.00 0.00 53 1001.8
20260505020031 76 170 0.0 3.0 0.00 0.00 0.00 50 1001.5
20260505014537 76 237 0.0 5.0 0.00 0.00 0.00 49 1001.3
20260505013035 77 213 2.0 5.0 0.00 0.00 0.00 47 1001.2
20260505011530 78 164 1.0 5.0 0.00 0.00 0.00 46 1001.0
20260505010029 78 219 3.0 7.0 0.00 0.00 0.00 45 1000.9
20260505004552 79 211 4.0 8.0 0.00 0.00 0.00 44 1000.7
20260505003028 80 209 4.0 9.0 0.00 0.00 0.00 43 1000.6
20260505001530 80 168 5.0 8.0 0.00 0.00 0.00 43 1000.6
20260505000028 81 217 3.0 8.0 0.00 0.00 0.00 44 1000.8
20260504234528 81 182 2.0 7.0 0.00 0.00 0.00 44 1000.7
20260504233026 81 147 5.0 11.0 0.00 0.00 0.00 43 1000.7
20260504231526 81 186 8.0 12.0 0.00 0.00 0.00 42 1000.7
20260504230025 81 195 9.0 14.0 0.00 0.00 0.00 41 1000.7
20260504224532 82 212 7.0 17.0 0.00 0.00 0.00 40 1000.5
20260504223025 82 212 6.0 16.0 0.00 0.00 0.00 37 1000.5
20260504221532 83 224 7.0 18.0 0.00 0.00 0.00 36 1000.5
20260504220022 83 178 8.0 17.0 0.00 0.00 0.00 37 1000.6
20260504214520 82 162 9.0 16.0 0.00 0.00 0.00 38 1000.8
20260504213032 83 188 8.0 14.0 0.00 0.00 0.00 37 1000.9
20260504211518 82 216 8.0 16.0 0.00 0.00 0.00 37 1001.0
20260504210018 82 225 8.0 20.0 0.00 0.00 0.00 38 1001.1
20260504204515 82 207 6.0 14.0 0.00 0.00 0.00 38 1001.2
20260504203014 82 222 6.0 15.0 0.00 0.00 0.00 38 1001.2
20260504201512 82 205 12.0 19.0 0.00 0.00 0.00 39 1001.5
20260504200011 81 185 7.0 12.0 0.00 0.00 0.00 39 1001.5
20260504194515 82 249 7.0 14.0 0.00 0.00 0.00 40 1001.7
20260504193010 81 207 4.0 14.0 0.00 0.00 0.00 41 1001.7
20260504191505 80 189 8.0 15.0 0.00 0.00 0.00 43 1001.7
20260504190003 79 211 10.0 16.0 0.00 0.00 0.00 43 1001.8
20260504184508 80 139 8.0 12.0 0.00 0.00 0.00 43 1001.8
20260504183100 79 199 8.0 17.0 0.00 0.00 0.00 43 1001.9
20260504181602 78 190 6.0 17.0 0.00 0.00 0.00 45 1001.9
20260504180056 78 196 9.0 14.0 0.00 0.00 0.00 44 1002.2
20260504174554 78 207 8.0 16.0 0.00 0.00 0.00 44 1002.1
20260504173051 77 196 9.0 13.0 0.00 0.00 0.00 45 1002.3
20260504171549 76 164 5.0 13.0 0.00 0.00 0.00 47 1002.4
20260504081545 64 71 0.0 2.0 0.00 0.00 0.00 57 1005.1
20260504050017 69 132 6.0 11.0 0.00 0.00 0.00 47 1006.3
20260504044515 69 154 5.0 11.0 0.00 0.00 0.00 47 1006.7
20260504043013 69 103 8.0 16.0 0.00 0.00 0.00 46 1007.1
20260504041512 68 41 6.0 11.0 0.00 0.00 0.00 52 1008.2
20260504040014 67 340 5.0 10.0 0.00 0.00 0.00 59 1008.5
20260504034517 66 261 0.0 5.0 0.00 0.00 0.00 65 1007.7
20260504033009 67 253 2.0 3.0 0.00 0.00 0.00 64 1008.0
20260504031509 67 89 1.0 2.0 0.00 0.00 0.00 63 1007.7
20260504030008 67 322 0.0 3.0 0.00 0.00 0.00 60 1008.2
20260504024509 68 250 0.0 0.0 0.00 0.00 0.00 63 1007.9